Flag for U.S.A. Weather past 2 weeks in Asheville, North Carolina, U.S.A.

Now
60 °F

Mostly cloudy.


Feels Like: 60 °F
Forecast: 47 / 71 °F
Wind: 12 mph from South

Location: Asheville Regional Airport

Current Time: Mar 4, 2015 at 7:47:43 AM

Latest Report: Mar 4, 2015 at 6:54 AM


Visibility: 10 mi

Pressure: 29.93 "Hg

Humidity: 80%

Dew point: 54 °F

Location of AshevilleLocation

Historic Weather in Asheville — Graph

°F

Asheville temperature yesterday

Maximum temperature yesterday: 52 °F (at 4:01 PM)
Minimum temperature yesterday: 40 °F (at 12:54 AM)
Average temperature yesterday: 45 °F

Past Weeks' High & Low Weather Summary

 TemperatureHumidityPressure
High60 °F (Mar 4, 6:54 AM)100% (Feb 22, 2:54 AM)30.68 "Hg (Feb 22, 2:54 AM)
Low3 °F (Feb 19, 6:54 AM)33% (Feb 20, 2:54 PM)29.69 "Hg (Feb 26, 2:54 AM)
Average32 °F71%30.17 "Hg
* Reported Feb 17 6:54 AM — Mar 4 6:54 AM, Asheville, Weather by CustomWeather, © 2015

Note: Actual official high and low records may vary slightly from our data, if they occured in-between our weather recording intervals... More about our weather records

Advertising

Asheville weather history for previous 24 hours

 ConditionsComfort  
Time TempWeatherWind HumidityBarometerVisibility
6:54 AM
Wed, Mar 4
60 °FMostly cloudy.12 mph80%29.93 "Hg10 mi
5:54 AM59 °FMostly cloudy.12 mph81%29.93 "Hg10 mi
4:54 AM58 °FMostly cloudy.14 mph81%29.93 "Hg10 mi
3:54 AM58 °FPassing clouds.12 mph84%29.93 "Hg10 mi
2:54 AM58 °FPassing clouds.9 mph90%29.94 "Hg10 mi
1:54 AM55 °FMostly cloudy.7 mph90%29.98 "Hg10 mi
12:54 AM51 °FMostly cloudy.3 mph92%30.01 "Hg10 mi
11:54 PM
Tue, Mar 3
49 °FPassing clouds.8 mph93%30.03 "Hg10 mi
10:54 PM48 °FPassing clouds.3 mph93%30.06 "Hg10 mi
9:54 PM47 °FLow clouds.3 mph93%30.08 "Hg10 mi
8:54 PM48 °FOvercast.7 mph93%30.08 "Hg10 mi
7:54 PM46 °FLight rain. Fog.9 mph93%30.09 "Hg5 mi
6:54 PM47 °FLight rain. Fog.6 mph93%30.09 "Hg4 mi
5:54 PM50 °FLight rain. Overcast.9 mph83%30.08 "Hg10 mi
4:54 PM51 °FOvercast.9 mph74%30.10 "Hg10 mi
4:01 PM52 °FOvercast.8 mph72%30.12 "Hg10 mi
2:54 PM49 °FOvercast.10 mph74%30.13 "Hg10 mi
1:54 PM48 °FOvercast.9 mph71%30.18 "Hg10 mi
1:01 PM46 °FOvercast.9 mph73%30.21 "Hg10 mi
12:01 PM46 °FMostly cloudy.9 mph71%30.24 "Hg10 mi
10:54 AM43 °FOvercast.9 mph74%30.29 "Hg10 mi
10:01 AM42 °FOvercast.8 mph73%30.28 "Hg10 mi
9:01 AM42 °FOvercast.7 mph71%30.28 "Hg10 mi
7:54 AM41 °FOvercast.8 mph74%30.29 "Hg10 mi
Weather by CustomWeather, © 2015

See weather overviewHow to use our weather pages